STARLINK-37005, 68107

Orbit data source: Space-Track

STARLINK-37005, 68107 is a payload satellite owned by SpaceX/Seattle (US) in SSO that was launched on Sun, 08 Mar 2026 UTC via an FALCON 9 launch vehicle from the Air Force Western Test Range (AFWTR). Payload-class satellites include a variety of spacecraft equipped with specific instruments for various scientific and technological missions. These include communications satellites like Starlink; space stations such as the ISS; scientific satellites like the Hubble; Earth observation satellites from companies like Planet Labs, Umbra, and HawkEye 360; GPS; miniature CubeSats for education and research; and military/defense satellites.

Loading next visibility...
Identifier
68107, 2026-044G
Orbit
SSO
Country
Flag of USUS
Related business
Manufacturer
SpaceX/Seattle
Mission
Operational spacecraft
Bus & Motor
STARLINK V2MO, Unknown motor
Mass
575 kg wet, ~530 kg dry
Launch date (UTC)
2026-03-08 (1 month ago)
Launch vehicle
FALCON 9
Launch site
Air Force Western Test Range (AFWTR)
Object type
Payload
Rocket body
Debris
Shape & HBR
Unknown shape, 17.7 m
Radar Cross Section
RCS unknown

Expand to show TLE details & history
Last TLE update: 17 hours ago

TLE from 17 hours ago
0 STARLINK-37005
1 68107U 26044G   26104.86329387  .00089864  00000-0  27455-2 0  9997
2 68107  97.2850  66.0081 0001171 104.7449 255.3923 15.33530849  7125
Epoch: 2026-04-14T20:43Z
TLE epoch observation values (Epoch: 2026-04-14T20:43:08.590Z)
Latitude
-0.00008°
Longitude
-87.81112°
Altitude
468.602 km
Speed
7.632 km/s
True Right ascension
04h 24m 01s
True Declination
0° 00' 00"
Sunlit
Object was in daylight at epoch
Visualization orbit readout
Latitude
Unknown
Longitude
Unknown
Altitude
Unknown
Speed
Unknown
Apparent Right ascension
Unknown
Apparent Declination
Unknown
Sunlit
N/A
Visualization observer readout
Local Sidereal Time
20:28:41
Azimuth
Unknown
Elevation
Unknown
Doppler factor
Unknown
Orbital elements
Apogee altitude
463.031 km
Perigee altitude
461.429 km
Semi-major axis
6,840.367 km
Eccentricity
0.00012
Inclination
97.285°
RAAN
66.0081°
Arg. of periapsis
104.7449°
True anomaly
255.37932°
Mean anomaly
255.3923°
Eccentric anomaly
255.38581°
Mean motion
3.8364 °/min
Orbital period
93.84 mins
BSTAR
0.0027455
Loading maneuver chart data...
Computing Atmospheric mass density...
Loading historical data...
Loading historical data...
Loading historical data...
Loading historical data...
Loading historical data...
Loading historical data...
Loading historical data...

Documentation

Showing up to 5 results
|